Regional Weather Roundup
Issued by NWS San Angelo, TX

Home | Current Version | Previous Version | Text Only | Print | Product List | Glossary On
Versions: 1 2 3 4 5 6 7 8 9 10 11 12 13 14 15 16 17 18 19 20 21 22 23 24 25 26 27 28 29 30 31 32 33 34 35 36 37 38 39 40 41 42 43 44 45 46 47 48 49 50
865
ASUS44 KSJT 292311
RWRSJT
WEST CENTRAL TEXAS REGIONAL WEATHER ROUNDUP
NATIONAL WEATHER SERVICE SAN ANGELO TX
600 PM CDT FRI JUL 29 2016

NOTE: "FAIR" INDICATES FEW OR NO CLOUDS BELOW 12,000 FEET WITH NO
SIGNIFICANT WEATHER AND/OR OBSTRUCTIONS TO VISIBILITY.

TXZ049-054-064>066-071>073-076>078-098-099-113-114-127-128-139-140-
154-155-168>170-300000
...LOCATIONS ACROSS WEST CENTRAL TEXAS...

CITY           SKY/WX    TMP DP  RH WIND       PRES   REMARKS
SAN ANGELO     CLOUDY    94  60  32 S5        29.96F
ABILENE        PTSUNNY   91  67  44 SE13      29.96F
DYESS AFB      SUNNY     94  67  40 E14       29.94F
JUNCTION       SUNNY     95  60  31 MISG      29.96F
SWEETWATER     SUNNY     93  60  32 SE8       29.99F
BROWNWOOD      LGT RAIN  93  64  38 S5        29.96S
COLEMAN        CLEAR     94  62  34 S7        29.96F
SONORA         SUNNY     91  63  38 S18       30.02F
OZONA          FAIR      91  55  29 S22       30.00F
BRADY          NOT AVBL
$$

TEXAS PANHANDLE/OKLAHOMA PANHANDLE

CITY           SKY/WX    TMP DP  RH WIND       PRES   REMARKS
AMARILLO       SUNNY     90  63  40 SE18G25   30.04F
BORGER         SUNNY     89  62  40 SE14G21   30.01F
CANADIAN       SUNNY     91  63  39 S3        29.98S
DALHART        MOSUNNY   91  58  32 S17G26    30.04S
DUMAS          CLEAR     89  61  38 S18       30.03F
GUYMON         NOT AVBL
HEREFORD       CLEAR    N/A N/A N/A S17G24    30.04F
PAMPA          CLEAR     90  58  33 S12       30.04F
PERRYTON       SUNNY     90  64  42 SE7       30.03F
$$

SOUTHERN PANHANDLE/SOUTH PLAINS/ROLLING PLAINS

CITY           SKY/WX    TMP DP  RH WIND       PRES   REMARKS
LUBBOCK        MOSUNNY   93  57  29 S18       30.00F
SNYDER           N/A     94  62  34 SE14      29.98F
CHILDRESS      SUNNY     94  62  34 S9        29.95F
SEMINOLE       PTCLDY    93  53  25 SE13G22   30.02F
$$

PERMIAN BASIN

CITY           SKY/WX    TMP DP  RH WIND       PRES   REMARKS
MIDLAND        SUNNY     95  57  27 SE18      29.98F
ODESSA         MOSUNNY   95  58  28 SE17      30.00F
WINK           SUNNY     95  56  26 SE17G26   29.95F
$$

FAR WEST/SOUTHWEST MOUNTAINS/TRANS PECOS

CITY           SKY/WX    TMP DP  RH WIND       PRES   REMARKS
ALPINE         PTCLDY    81  58  45 S9        30.15S
DRYDEN           N/A     87  67  51 SE16G23   29.97F
EL PASO        MOSUNNY   96  46  18 SE15G25   29.96F
FORT STOCKTON  MOSUNNY   92  59  33 E15G22    29.98F
GUADALUPE PASS MOSUNNY   85  52  32 E28G38    30.13F
MARFA          LGT RAIN  66  64  93 SW12      30.17S
PECOS          CLEAR     97  56  25 E12G23    29.93F
$$

DALLAS/FORT WORTH METROPLEX

CITY           SKY/WX    TMP DP  RH WIND       PRES   REMARKS
DFW AIRPORT    PTSUNNY   94  69  44 S10       29.90F
FTW MEACHAM    MOSUNNY   94  70  45 S5        29.91F
DAL-EXECUTIVE  SUNNY     91  67  44 S6        29.91F
GRAND PRAIRIE  SUNNY     93  66  40 S7        29.92F
ADDISON        MOSUNNY   93  70  46 SW7G17    29.92S
MESQUITE       CLEAR     93  66  40 S9        29.92F
LANCASTER      CLEAR     95  66  38 SW8       29.92F
$$

NORTH CENTRAL TEXAS

CITY           SKY/WX    TMP DP  RH WIND       PRES   REMARKS
SHRMAN/DENISON CLEAR     95  71  44 W12       29.93S
GAINESVILLE    SUNNY     92  71  50 S8        29.94S
BRIDGEPORT     MOCLDY    91  71  53 S7        29.95S
DENTON         PTSUNNY   91  73  55 SW9       29.91S
WAXAHACHIE     CLEAR     93  70  46 S9        29.93F
GRANBURY       CLEAR     97  63  32 S9        29.92F
$$

WESTERN NORTH TEXAS

CITY           SKY/WX    TMP DP  RH WIND       PRES   REMARKS
WICHITA FALLS  SUNNY     94  66  39 S9        29.91F
VERNON         CLEAR     97  52  21 SW7       29.93F
BRECKENRIDGE   CLOUDY    93  66  41 S6        29.94F HAZE
COMANCHE       MOSUNNY   92  67  42 S12G17    29.97F
$$

CENTRAL AND SOUTH CENTRAL TEXAS

CITY           SKY/WX    TMP DP  RH WIND       PRES   REMARKS
AUSTIN/BERGSTM MOSUNNY   94  68  42 S3        29.93F
WACO           MOSUNNY   93  68  43 W3        29.92F
HILLSBORO      PTCLDY    92  68  45 S12       29.93F
TEMPLE         SUNNY     96  67  38 SE9G18    29.93F HAZE
KILLEEN-GRAY   MOSUNNY   93  65  39 S10       29.92F
FORT HOOD      MOSUNNY   93  66  40 S9        29.91F
GEORGETOWN     NOT AVBL
LAGO VISTA     FAIR      94  59  30 SE8       29.98S
SAN MARCOS     MOSUNNY   93  70  46 S6        29.96F
NEW BRAUNFELS  PTSUNNY   95  69  42 E7        29.93F
RANDOLPH AFB   SUNNY     93  71  48 E6        29.95F
SAN ANTONIO    MOSUNNY   92  68  45 SE12G18   29.95F
STINSON        CLOUDY    95  68  41 E9        29.92F
PLEASANTON     NOT AVBL
LA GRANGE        N/A     94  74  52 S5        29.92F
GIDDINGS       CLEAR     93  65  39 CALM      29.97F
$$

EAST TEXAS

CITY           SKY/WX    TMP DP  RH WIND       PRES   REMARKS
PARIS          MOSUNNY   93  66  40 SW10      29.91S
CLARKSVILLE    NOT AVBL
TYLER          PTSUNNY   90  72  55 SW7       29.95F
LONGVIEW       SUNNY     91  68  46 SW9       29.93F
PALESTINE      CLOUDY    90  73  58 CALM      29.96F
NACOGDOCHES    CLOUDY   N/A N/A N/A CALM      29.94F
$$

TEXAS HILL COUNTRY AND EDWARDS PLATEAU

CITY           SKY/WX    TMP DP  RH WIND       PRES   REMARKS
LLANO          CLEAR     97  64  34 SE7       29.97F
HORSESHOE BAY  FAIR      95  61  32 S6        29.96F
KERRVILLE      SUNNY     92  64  39 S8        30.00F
FREDERICKSBRG  SUNNY     92  58  32 S9        29.99S
ROCKSPRINGS    CLEAR     91  61  35 SE7       30.04S
HONDO          SUNNY     92  68  45 SE6       29.96F
UVALDE         CLEAR     93  68  44 E8        29.95S
DEL RIO        MOSUNNY   93  68  43 E8G17     29.92F
$$

SOUTHEAST TEXAS

CITY           SKY/WX    TMP DP  RH WIND       PRES   REMARKS
COLLEGE STN    MOSUNNY   95  70  44 S10       29.93F
CALDWELL       CLEAR     93  66  40 CALM      29.96F
CROCKETT       PTCLDY    88  70  55 S3        29.98F
BRENHAM        SUNNY     96  68  39 CALM      29.94F
HUNTSVILLE     CLOUDY    90  69  50 S5        29.96F
CONROE         MOSUNNY   92  71  50 CALM      29.95F
HOUSTON BUSH   PTSUNNY   93  72  50 SE9       29.94F
HOUSTON HOBBY  PTSUNNY   91  74  57 SE9       29.94F
PERLAND        MOSUNNY   88  71  57 SE6       29.97S
WHARTON          N/A     93  74  54 SE10        N/A
$$

THE UPPER TEXAS COAST

CITY           SKY/WX    TMP DP  RH WIND       PRES   REMARKS
ORANGE         CLEAR     91  65  41 SW3       29.97F
PORT ARTHUR    SUNNY     91  74  57 S5        29.95F
GALVESTON      SUNNY     88  76  67 SE12      29.97F
ANGLETON       SUNNY     92  76  59 S14       29.95F
BAY CITY       CLEAR     91  75  58 S9        29.96S
$$

TEXAS COASTAL BEND, RIO GRANDE PLAINS DEEP SOUTH TEXAS

CITY           SKY/WX    TMP DP  RH WIND       PRES   REMARKS
VICTORIA       MOSUNNY   91  71  51 SE13      29.94S
BEEVILLE       FAIR      83  77  83 CALM      29.93F
ROCKPORT       SUNNY     90  75  61 SE14      29.93F
PORT ARANSAS   CLEAR     89  78  68 SE12      29.93F
PORT LAVACA    CLEAR     90  76  62 SE13      29.95S
CORPUS CHRISTI MOSUNNY   93  73  52 SE16      29.91F
KINGSVILLE NAS PTSUNNY   91  76  61 SE20G25   29.90F
COTULLA        SUNNY     97  65  34 E10       29.90F
LAREDO         LGT RAIN  95  68  41 E18       29.88R
BROWNSVILLE    SUNNY     92  75  57 SE15G25   29.92S
PORT ISABEL    SUNNY     91  77  63 E16       29.91F
HEBBRONVILLE   CLOUDY    87  66  49 SE15      29.93S
MCALLEN        MOSUNNY   99  72  41 E16G25    29.87F
WESLACO        MOSUNNY   91  15   6 SE16G23   29.88F
FALFURRIAS     CLOUDY    79  69  73 CALM      29.90F
EDINBURG       MOCLDY    94  68  41 E15       29.88F
$$




USA.gov is the U.S. government's official web portal to all federal, state and local government web resources and services.